Jackpot

Texas Poker Multi Jackpot System

Kini Telah hadir Jackpot SUPER ROYAL FLUSH

Kini Telah hadir Jackpot 2000 (khusus table VIP keatas).

Ikutilah global jackpot yang tersedia di system kami, dengan system jackpot terbaru dan pertama di indonesia, anda dapat membeli jackpot dengan harga 100 rupiah saja dan menangkan hadiahnya hingga puluhan juta rupiah.

Jackpot bukanlah suatu keharusan untuk dibeli, namun kami memberikan suatu fitur tambahan untuk member tercinta dari www.indoplays.com.

Terdapat tiga pilihan harga jackpot yang bisa anda beli yaitu :100,500,1000 dan 2000(khusus table VIP Keatas) rupiah.

Hadiah dari Multi jackpot system www.indoplays.com

  1. full house x 10 harga jackpot yang anda beli.
      (contoh:anda membeli 1000 maka:1000 X10 = 10.000)
  2. four of kind x 250 harga jackpot yang anda beli
      (contoh:anda membeli 1000 maka:1000 X250 = 250.000)
  3. Straight flush x 1200
      (contoh:anda membeli 1000 maka:1000 X1200 = 1.200.000)
  4. Royal flush x 10000 harga jackpot yang anda beli
      (contoh:anda membeli 1000 maka:1000 X10000 = 10.000.000)
  5. SUPER ROYAL FLUSH x 30000 harga jackpot yang anda beli
      (contoh:anda membeli 1000 maka:1000 X30000 = 30.000.000)

Kondisi kartu

  1. full house adalah kondisi kartu dimana kartu anda dan kartu tengah dengan total 7 kartu bisa mendapatkan nilai 5 kartu dengan kombinasi 1 tris(three of kind) dan 1 pair, contoh 3 kartu 10 dan 2 kartu 5
  2. Four of kind adalah kondisi kartu dimana kartu anda dan kartu tengah dengan total 7 kartu bisa mendapatkan nilai 5 kartu dengan kombinasi 4 kartu yang sama jumlah dan 1 kartu apapun juga contoh anda mendapatkan 4 buah kartu angka 3 dan 1 kartu apapun.
  3. Staright flush adalah kondisi kartu dimana kartu anda dan kartu tengah dengan total 7 kartu bisa mendapatkan nilai 5 kartu dengan kombinasi seri / staright dengan kembang yang sama contoh : urutan kartu dari angka 5, 6, 7, 8 , 9 10 dengan kembang yg sama misalnya as hati
  4. Royal flush adalah kondisi kartu dimana kartu anda dan kartu tengah dengan total 7 kartu bisa mendapatkan nilai 5 kartu dengan kombinasi seri / staright dengan kembang yang sama tetapi kartu tersebut haruslah dimulai dari 10. contoh 10, Queen, Jack, King dan aces dengan kembang yang sama
  5. Super Royal flush adalah kondisi kartu dimana Kedua kartu anda digabung dengan 3 kartu pertama meja haruslah royal flush. contoh kartu anda 10,Queen kembang sama dan 3 kartu pertama meja adalah Jack, King dan aces dengan kembang yang sama

Demikian adalah penjelasan dari Multi Jackpot www.indoplays.com terima kasih dan selamat bermain salam hoki dari kami

Texas Poker Jackpot Winner

TOP SUPER ROYAL FLUSH
No.TanggalNamaPriceWin
130/03 01:39Y4LLITSuper Royal flush3,000,000
230/03 01:33PUNDENKUSuper Royal flush3,000,000
329/03 23:06GUN_12Super Royal flush3,000,000
429/03 22:26RTTNSuper Royal flush15,000,000
529/03 21:17CHIMEZZUMSuper Royal flush3,000,000
TOP ROYAL FLUSH
No.TanggalNamaPriceWin
130/03 03:44E6BC7E73Royal flush1,000,000
230/03 03:08ME7ARoyal flush1,000,000
330/03 03:06OMPU88Royal flush20,000,000
430/03 03:02FAGUHE01Royal flush1,000,000
530/03 02:54WDKITARoyal flush1,000,000
TOP STRAIGHT FLUSH
No.TanggalNamaPriceWin
130/03 03:45BFIStraight Flush1,200,000
230/03 03:42DWBT8881Straight Flush1,200,000
330/03 03:40MUSIM6JTStraight Flush600,000
430/03 03:38I_M_BOLDStraight Flush600,000
530/03 03:36W1W1N77Straight Flush600,000
LATEST JACKPOT
No.TanggalNamaPriceWin
130/03 03:48BGIIBAGASFull House5,000
230/03 03:48ANGGISUCIFull House5,000
330/03 03:48MASTER99AAFull House1,000
430/03 03:48LOEKAN77Full House10,000
530/03 03:48BJ4HFull House1,000
630/03 03:48D53RERFull House1,000
730/03 03:48TUAN17Full House1,000
830/03 03:48MIRACLE90Full House10,000
930/03 03:48IREXS955Four Of A Kind125,000
1030/03 03:48TB009Full House20,000
1130/03 03:48RCDENIMFull House20,000
1230/03 03:48SOPACUAFull House10,000
1330/03 03:48ARIF268Full House5,000
1430/03 03:48DA6BEC05Full House1,000
1530/03 03:48COUPER20Full House10,000
1630/03 03:48AKMALDO100Full House5,000
1730/03 03:48SIAPPUDAN1Full House20,000
1830/03 03:48LANUS16Full House20,000
1930/03 03:48SEVILA888Full House20,000
2030/03 03:48REPOT7Full House5,000
2130/03 03:48KDK3002Full House20,000
2230/03 03:48MIQQ42DPANFull House5,000
2330/03 03:48JACP0T88Full House10,000
2430/03 03:48SUROLUFull House5,000
2530/03 03:47KIBULL885Full House5,000
2630/03 03:47RISKIYAN1Full House5,000
2730/03 03:47VANILA88Full House1,000
2830/03 03:47TELUNGKOPFull House1,000
2930/03 03:47ARSENIO20Full House5,000
3030/03 03:47WAYFull House5,000
3130/03 03:47DULLOH85Full House10,000
3230/03 03:47CUMPLUNXFull House1,000
3330/03 03:47GP08Full House10,000
3430/03 03:47D3NNFull House10,000
3530/03 03:47YOKK01Full House10,000
3630/03 03:47ALMI1Full House5,000
3730/03 03:47DEBIE12Four Of A Kind25,000
3830/03 03:47TEKULUHFull House5,000
3930/03 03:47KUNTO23Full House20,000
4030/03 03:47B84OFNELQNFull House5,000
4130/03 03:47T4D0013032Four Of A Kind125,000
4230/03 03:47RANCHODAFull House5,000
4330/03 03:47KASBONBOS1Full House1,000
4430/03 03:47BJ4HFull House1,000
4530/03 03:47TEMPURKEUNFull House1,000
4630/03 03:47JENNOER77Full House5,000
4730/03 03:47KKN99Full House1,000
4830/03 03:47ACIE78Full House1,000
4930/03 03:47HARCLUB9Full House5,000
5030/03 03:47MASTERH0N9Full House1,000

Domino Multi Jackpot System

Ikutilah global jackpot yang tersedia di system kami, dengan system jackpot terbaru dan pertama di indonesia, anda dapat membeli jackpot dengan harga 100 rupiah saja dan menangkan hadiahnya hingga puluhan juta rupiah.

Jackpot bukanlah suatu keharusan untuk dibeli, namun kami memberikan suatu fitur tambahan untuk member tercinta dari www.indoplays.com.

Terdapat tiga pilihan harga jackpot yang bisa anda beli yaitu :100,500 dan 1000 rupiah.

Hadiah dari Multi jackpot system www.indoplays.com

  1. Murni Kecil x 50 harga jackpot yang anda beli.
      (contoh:anda membeli 1000 maka:1000 X 50 = 50.000)
  2. Murni Besar x 50 harga jackpot yang anda beli
      (contoh:anda membeli 1000 maka:1000 X 50 = 50.000)
  3. BALAK x 100 harga jackpot yang anda beli
      (contoh:anda membeli 1000 maka:1000 X 100 = 100.000)
  4. ENAM DEWA x 6666 harga jackpot yang anda beli
      (contoh:anda membeli 1000 maka:1000 X 6666 = 6.666.000)

Demikian adalah penjelasan dari Multi Jackpot www.indoplays.com terima kasih dan selamat bermain salam hoki dari kami

Domino Jackpot Winner

TOP ENAM DEWA
No.TanggalNamaPriceWin
130/03 00:58LAKUTEH27murni enam666,600
229/03 22:33DELPIERO52murni enam6,666,000
329/03 21:47BALAKS18murni enam6,666,000
429/03 20:41CEKDO30murni enam666,600
529/03 19:46MBLABURmurni enam666,600
TOP BALAK
No.TanggalNamaPriceWin
130/03 03:47SAUMA8balak100,000
230/03 03:46BADBOYS89balak50,000
330/03 03:43J3RIB3Tbalak100,000
430/03 03:40EKO508balak100,000
530/03 03:34BAKO87balak10,000
LATEST JACKPOT
No.TanggalNamaPriceWin
130/03 03:47SAUMA8balak100,000
230/03 03:47K1S0ETmurni kecil50,000
330/03 03:46EBODSABENImurni besar50,000
430/03 03:46BADBOYS89balak50,000
530/03 03:45IYADON99murni kecil25,000
630/03 03:44UDEENmurni besar5,000
730/03 03:43J3RIB3Tbalak100,000
830/03 03:42MAOKAROmurni kecil50,000
930/03 03:41IONKWAJPPFmurni besar25,000
1030/03 03:40IDAY1murni kecil5,000
1130/03 03:40PRADIPTA01murni kecil25,000
1230/03 03:40EKO508balak100,000
1330/03 03:39SOMEBUSSUmurni kecil50,000
1430/03 03:39TANTRA67murni besar50,000
1530/03 03:37PAE303murni kecil50,000
1630/03 03:36CHAMPAY98murni kecil25,000
1730/03 03:36BIN1980murni besar25,000
1830/03 03:36PUSEK88murni besar25,000
1930/03 03:34BAKO87balak10,000
2030/03 03:33RISNA96murni besar25,000
2130/03 03:33ENGGANOmurni kecil50,000
2230/03 03:33IONKWAJPPFmurni besar25,000
2330/03 03:33RPEEmurni besar25,000
2430/03 03:32J3RIB3Tbalak100,000
2530/03 03:32SIGITMIXmurni kecil50,000
2630/03 03:31WAHYU05murni kecil50,000
2730/03 03:31JACKLIERmurni besar25,000
2830/03 03:30BOSSONG80murni kecil50,000
2930/03 03:30BOBBY7murni kecil50,000
3030/03 03:30PWK123murni kecil25,000
3130/03 03:29RAHMA969murni besar5,000
3230/03 03:29PWK123murni kecil25,000
3330/03 03:29WAHYU05murni besar50,000
3430/03 03:28NIAKITTY08murni kecil50,000
3530/03 03:28RW9WHMBJWTmurni kecil5,000
3630/03 03:27RW9WHMBJWTmurni besar5,000
3730/03 03:27DUDUTJR01murni kecil50,000
3830/03 03:25SEX689murni besar25,000
3930/03 03:24B4NDOTmurni besar25,000
4030/03 03:23CEKDO30murni kecil5,000
4130/03 03:23VINA2012murni kecil5,000
4230/03 03:23QQ11111117murni besar50,000
4330/03 03:23DANHEND99murni besar50,000
4430/03 03:22NINDATUKARmurni kecil50,000
4530/03 03:22KEMENANG4Nmurni kecil50,000
4630/03 03:21PAPAH03murni kecil50,000
4730/03 03:20AAQQ996666murni besar5,000
4830/03 03:20NIDOMEDALmurni kecil50,000
4930/03 03:20SANAKKOBUMmurni kecil25,000
5030/03 03:20CLASIC9murni besar25,000

Ceme Multi Jackpot System

Jackpot dilihat dari gabungan kartu pemain dengan kartu bandar. Bandar harus membeli jackpot sebanyak jumlah player yang sedang duduk. Sebagai contoh bila terdapat 3 pemain duduk bermain, dan bandar memutuskan untuk membeli jackpot Rp 1.000, maka pada periode tersebut bandar akan membeli jackpot sebanyak 3xRp1.000 = Rp3.000.

Jackpot bukanlah suatu keharusan untuk dibeli, namun kami memberikan suatu fitur tambahan untuk member tercinta dari www.indoplays.com.

Terdapat tiga pilihan harga jackpot yang bisa anda beli yaitu :100,500 dan 1000 rupiah.

Hadiah dari Multi jackpot system www.indoplays.com

  1. Murni Kecil x 50 harga jackpot yang anda beli.
      (contoh:anda membeli 1000 maka:1000 X 50 = 50.000)
  2. Murni Besar x 50 harga jackpot yang anda beli
      (contoh:anda membeli 1000 maka:1000 X 50 = 50.000)
  3. BALAK x 200 harga jackpot yang anda beli
      (contoh:anda membeli 1000 maka:1000 X 200 = 200.000)
  4. ENAM DEWA x 6666 harga jackpot yang anda beli
      (contoh:anda membeli 1000 maka:1000 X 6666 = 6.666.000)

Demikian adalah penjelasan dari Multi Jackpot www.indoplays.com terima kasih dan selamat bermain salam hoki dari kami

Ceme Jackpot Winner

TOP ENAM DEWA
No.TanggalNamaPriceWin
130/03 03:31GAGUK94murni enam3,333,000
230/03 03:30FAJAR117murni enam666,600
330/03 03:30ARM4ND0420murni enam6,666,000
430/03 02:54R0Y4LJ3LYmurni enam666,600
530/03 02:22KAPRI86murni enam6,666,000
TOP BALAK
No.TanggalNamaPriceWin
130/03 03:48GIMOGIMObalak100,000
230/03 03:47DARKO2017balak20,000
330/03 03:44COKRO003balak200,000
430/03 03:44MBAHDEWA99balak200,000
530/03 03:44IVAN41balak200,000
LATEST JACKPOT
No.TanggalNamaPriceWin
130/03 03:48DTO39UF9XSmurni kecil50,000
230/03 03:48LOKPAmurni kecil50,000
330/03 03:48HDXDRSBRSOmurni kecil5,000
430/03 03:48IRFAN067murni kecil25,000
530/03 03:48GIMOGIMObalak100,000
630/03 03:47KATRO30murni kecil50,000
730/03 03:47RLRD2CNGM8murni kecil5,000
830/03 03:47DARKO2017balak20,000
930/03 03:47IVAN41murni kecil50,000
1030/03 03:47KASEMHOKImurni kecil5,000
1130/03 03:47KATRO30murni kecil50,000
1230/03 03:47NIINGNONGGmurni kecil50,000
1330/03 03:47PERINTIS89murni besar50,000
1430/03 03:46BLENDESmurni kecil50,000
1530/03 03:46W4NDEQmurni besar50,000
1630/03 03:45DOLITmurni kecil50,000
1730/03 03:45OM_ALEmurni kecil25,000
1830/03 03:45P4NTUNmurni kecil50,000
1930/03 03:45KEPIN678murni kecil50,000
2030/03 03:44BOYO2104murni besar50,000
2130/03 03:44COKRO003balak200,000
2230/03 03:44MBAHDEWA99balak200,000
2330/03 03:44T4DSONGEPmurni kecil5,000
2430/03 03:44IVAN41balak200,000
2530/03 03:44SEDAA23murni kecil5,000
2630/03 03:44MUJURBOZmurni kecil5,000
2730/03 03:44JONYEFENDImurni besar5,000
2830/03 03:44METAAL99murni besar50,000
2930/03 03:43COWBOY990murni kecil50,000
3030/03 03:43BLENDESmurni besar50,000
3130/03 03:43WIDWIATMO0murni besar50,000
3230/03 03:43BANTUDUNDmurni besar5,000
3330/03 03:43FRENSIAN01murni besar5,000
3430/03 03:42GAYEUM20murni kecil5,000
3530/03 03:42SEDAA23balak20,000
3630/03 03:42SEDAA23murni besar5,000
3730/03 03:42KOLONTIGImurni kecil50,000
3830/03 03:42R4D3N092murni besar50,000
3930/03 03:42EDIMUKHLmurni besar50,000
4030/03 03:42BANTUDUNDmurni besar5,000
4130/03 03:42PERINTIS89murni besar50,000
4230/03 03:42TEDMVEVJE7murni besar50,000
4330/03 03:42MPIINDRYmurni besar5,000
4430/03 03:41DOLITmurni besar50,000
4530/03 03:41TERKUTU00murni besar5,000
4630/03 03:40ELXTILJ7DHmurni kecil50,000
4730/03 03:40BOSQMImurni kecil50,000
4830/03 03:40ALDYA306murni kecil5,000
4930/03 03:40KATRO30murni besar50,000
5030/03 03:40TIKOESBUTAmurni besar5,000